DELTA 1 DEB, 21276

Orbit data source: Space-Track

DELTA 1 DEB, 21276 is space debris in SSO originally from a launch on Thu, 12 Jun 1975 UTC launched from the Air Force Western Test Range (AFWTR). Debris objects in space refer to the collection of defunct objects orbiting the Earth. Examples of debris include non-operational satellites, rocket bodies, and fragments generated from explosions, collisions, or faulty payload assembly.

Loading next visibility...
Identifier
21276, 1975-052M
Orbit
SSO
Country
Flag of USUS
Related business
Manufacturer
Unknown
Mission
Spacecraft
Bus & Motor
Unknown
Mass
Unknown
Launch date (UTC)
1975-06-12 (51 years ago)
Launch vehicle
Unknown
Launch site
Air Force Western Test Range (AFWTR)
Object type
Payload
Rocket body
Debris
Shape & HBR
Unknown shape, 1.2 m
Radar Cross Section
Large (>1 m²)

Expand to show TLE details & history
Last TLE update: 19 hours ago

TLE from 19 hours ago
0 DELTA 1 DEB
1 21276U 75052M   25346.30591642  .00000034  00000-0  15192-3 0  9995
2 21276 100.0228 244.2853 0045759 194.6475 280.5284 13.35556014686784
Epoch: 2025-12-12T07:20Z
TLE epoch observation values (Epoch: 2025-12-12T07:20:31.178Z)
Latitude
63.5885°
Longitude
-106.35948°
Altitude
1,130.602 km
Speed
7.296 km/s
True Right ascension
05h 40m 04s
True Declination
63° 27' 29"
Sunlit
Object was in full shadow at epoch
Visualization orbit readout
Latitude
Unknown
Longitude
Unknown
Altitude
Unknown
Speed
Unknown
Apparent Right ascension
Unknown
Apparent Declination
Unknown
Sunlit
N/A
Visualization observer readout
Local Sidereal Time
00:31:17
Azimuth
Unknown
Elevation
Unknown
Doppler factor
Unknown
Orbital elements
Apogee altitude
1,157.542 km
Perigee altitude
1,088.891 km
Semi-major axis
7,501.354 km
Eccentricity
0.00458
Inclination
100.0228°
RAAN
244.2853°
Arg. of periapsis
194.6475°
True anomaly
280.01234°
Mean anomaly
280.5284°
Eccentric anomaly
280.27042°
Mean motion
3.34067 °/min
Orbital period
107.76 mins
BSTAR
0.00015192
Loading maneuver chart data...
Computing Atmospheric mass density...
Loading historical data...
Loading historical data...
Loading historical data...
Loading historical data...
Loading historical data...
Loading historical data...
Loading historical data...

Documentation

Showing up to 5 results
|